VE7EY Weather Reports


time (UTC)temp
C
wind
direction
speed
KPH
gust
KPH
rain 1hr
cm
rain 24hr
cm
rain mn
cm
humidity
%
barometer
mb
20260504201506 18 276 1.6 6.4 0.00 0.00 0.00 73 1009.0
20260504200246 18 268 3.2 4.8 0.00 0.00 0.00 74 1009.2
20260504200054 18 288 1.6 4.8 0.00 0.00 0.00 75 1009.1
20260504194531 18 283 3.2 6.4 0.00 0.00 0.00 70 1009.0
20260504193251 18 269 1.6 6.4 0.00 0.00 0.00 78 1009.3
20260504193011 17 262 1.6 6.4 0.00 0.00 0.00 77 1009.2
20260504191525 17 257 4.8 8.0 0.00 0.00 0.00 75 1009.1
20260504190233 18 229 3.2 8.0 0.00 0.00 0.00 75 1009.3
20260504190008 17 258 3.2 8.0 0.00 0.00 0.00 75 1009.1
20260504184528 18 257 4.8 9.7 0.00 0.00 0.00 74 1009.2
20260504183249 17 241 4.8 8.0 0.00 0.00 0.00 71 1009.4
20260504183104 17 274 4.8 9.7 0.00 0.00 0.00 70 1009.2
20260504181544 17 266 4.8 8.0 0.00 0.00 0.00 74 1009.2
20260504180236 17 252 6.4 11.3 0.00 0.00 0.00 71 1009.3
20260504180024 16 259 4.8 8.0 0.00 0.00 0.00 75 1009.2
20260504174537 16 255 4.8 9.7 0.00 0.00 0.00 73 1009.2
20260504173226 16 255 6.4 9.7 0.00 0.00 0.00 75 1009.4
20260504173014 16 269 6.4 9.7 0.00 0.00 0.00 75 1009.2
20260504171525 16 276 4.8 8.0 0.00 0.00 0.00 77 1009.2
20260504170232 16 253 4.8 8.0 0.00 0.00 0.00 80 1009.5
20260504160255 16 269 3.2 4.8 0.00 0.00 0.00 68 1009.4
20260504150226 16 258 1.6 3.2 0.00 0.00 0.00 75 1009.4
20260504140239 15 283 0.0 0.0 0.00 0.00 0.00 73 1008.9
20260504130235 14 32 0.0 0.0 0.00 0.00 0.00 74 1008.5
20260504120251 14 52 0.0 0.0 0.00 0.00 0.00 75 1008.4
20260504110223 14 17 0.0 0.0 0.00 0.00 0.00 73 1008.4
20260504100257 15 113 0.0 1.6 0.00 0.00 0.00 70 1008.3
20260504081527 14 108 0.0 0.0 0.00 0.00 0.00 77 1007.9
20260504080232 14 32 0.0 0.0 0.00 0.00 0.00 77 1008.0
20260504070222 14 25 0.0 0.0 0.00 0.00 0.00 80 1007.8
20260504060227 13 288 0.0 0.0 0.00 0.00 0.00 86 1007.8
20260504050241 15 288 0.0 0.0 0.00 0.00 0.00 77 1008.1
20260504050001 15 288 0.0 0.0 0.00 0.00 0.00 77 1008.0
20260504044548 15 284 0.0 0.0 0.00 0.00 0.00 80 1008.0
20260504043226 15 274 0.0 0.0 0.00 0.00 0.00 80 1008.1
20260504043048 15 280 0.0 0.0 0.00 0.00 0.00 81 1007.9
20260504041600 14 280 0.0 0.0 0.00 0.00 0.00 82 1007.9
20260504040229 15 280 0.0 0.0 0.00 0.00 0.00 81 1008.0
20260504040126 15 280 0.0 0.0 0.00 0.00 0.00 81 1007.9
20260504034533 15 280 0.0 0.0 0.00 0.00 0.00 79 1007.8
20260504033239 15 266 0.0 0.0 0.00 0.00 0.00 79 1008.0
20260504033033 15 265 0.0 0.0 0.00 0.00 0.00 79 1007.9
20260504031555 16 264 0.0 0.0 0.00 0.00 0.00 76 1007.9
20260504030226 17 264 0.0 0.0 0.00 0.00 0.00 74 1008.0
20260504030012 17 264 0.0 0.0 0.00 0.00 0.00 74 1007.9
20260504024525 17 262 0.0 0.0 0.00 0.00 0.00 74 1008.0
20260504023234 18 277 0.0 3.2 0.00 0.00 0.00 72 1008.1
20260504023021 18 262 0.0 3.2 0.00 0.00 0.00 71 1008.0
20260504021533 18 264 0.0 0.0 0.00 0.00 0.00 69 1008.0
20260504020233 20 155 0.0 0.0 0.00 0.00 0.00 70 1008.3
20260504020003 19 174 0.0 0.0 0.00 0.00 0.00 69 1008.1
20260504014523 19 265 0.0 0.0 0.00 0.00 0.00 69 1008.4
20260504013229 20 248 0.0 0.0 0.00 0.00 0.00 69 1008.7
20260504013015 20 165 0.0 0.0 0.00 0.00 0.00 70 1008.5
20260504011559 19 250 0.0 0.0 0.00 0.00 0.00 71 1008.6
20260504010230 18 158 0.0 1.6 0.00 0.00 0.00 73 1008.9
20260504010056 18 158 0.0 1.6 0.00 0.00 0.00 74 1008.8
20260504004505 17 254 3.2 9.7 0.00 0.00 0.00 76 1009.0
20260504003243 17 257 6.4 8.0 0.00 0.00 0.00 74 1009.4
20260504003046 17 274 4.8 8.0 0.00 0.00 0.00 76 1009.2
20260504001601 17 264 3.2 8.0 0.00 0.00 0.00 76 1009.3
20260504000228 18 260 4.8 9.7 0.00 0.00 0.00 75 1009.6
20260504000053 18 264 1.6 9.7 0.00 0.00 0.00 76 1009.4
20260503234502 19 274 1.6 6.4 0.00 0.00 0.00 72 1009.7
20260503233224 20 195 0.0 4.8 0.00 0.00 0.00 72 1009.9
20260503233007 19 205 1.6 6.4 0.00 0.00 0.00 72 1009.8
20260503231514 20 264 3.2 11.3 0.00 0.00 0.00 68 1009.9
20260503230250 20 278 8.0 14.5 0.00 0.00 0.00 67 1010.2
20260503230033 20 273 4.8 11.3 0.00 0.00 0.00 68 1010.1
20260503224511 19 295 6.4 14.5 0.00 0.00 0.00 68 1010.3
20260503223227 19 297 6.4 17.7 0.00 0.00 0.00 68 1010.6
20260503223011 18 311 8.0 17.7 0.00 0.00 0.00 68 1010.6
20260503221558 18 262 6.4 12.9 0.00 0.00 0.00 72 1010.9
20260503220228 18 257 6.4 11.3 0.00 0.00 0.00 73 1011.1
20260503220051 18 258 8.0 11.3 0.00 0.00 0.00 73 1011.0
20260503214530 17 260 4.8 12.9 0.00 0.00 0.00 75 1011.2
20260503213231 18 257 9.7 12.9 0.00 0.00 0.00 74 1011.4
20260503213027 18 228 6.4 11.3 0.00 0.00 0.00 73 1011.2
20260503211539 20 269 4.8 16.1 0.00 0.00 0.00 69 1011.4
20260503210236 20 302 8.0 20.9 0.00 0.00 0.00 65 1011.6
20260503210027 20 272 6.4 20.9 0.00 0.00 0.00 66 1011.5
20260503204558 19 257 6.4 16.1 0.00 0.00 0.00 67 1011.8
20260503203224 18 255 9.7 14.5 0.00 0.00 0.00 71 1012.1
20260503203059 18 266 9.7 14.5 0.00 0.00 0.00 68 1012.0